TFFRTFFF

Guest
Details From TFFR - Pointe A Pitre Le Raizet
To TFFF - Le Lamentin
Flight Number -
Tags Generated
Created
Modified
Stats Distance 105 nm / 195 km
Max Altitude 0 ft / 0 m
Waypoints 2
Social Downloads 3
Likes 0
Share VATSIM

Download

Looking for another format? Having issues loading an existing format? Contact us
Advertisement - Login to hide

Notes

Generated

Route

TFFR TFFF

ID Type Via Altitude Latitude Longitude Leg Dist Tot Dist Heading (true) Name
O TFFR APT - 0 ft / 0 m 16.26830˚ -61.54794˚ - 0 nm - -
O TFFF APT - 0 ft / 0 m 14.58843˚ -61.01831˚ 105 nm 105 nm 163° / 163° -

Altitude Profile

Advertisement - Login to hide

TFFR

Details ICAO TFFR (PTP)
Name Pointe a Pitre Le Raizet
Region France (Guadeloupe, Martinique, Saint Barthélemy, Saint Martin)
Timezone America/Guadeloupe (UTC-4.0)
Stats Elevation 35 ft / 11 m (AMSL)
Location 16.265306° -61.531808°
Runways 1
Magnetic Variation 14.857° W

METAR

TFFR 180830Z AUTO 27001KT CAVOK 22/20 Q1015 TEMPO 4000 SHRA SCT015TCU

Decode

TAF

TAF TFFR 180500Z 1806/1906 09008KT 9999 SCT025 TEMPO 1806/1906 4000 SHRA SCT015TCU

Decode

Departure Runways

ID Width Length Bearing (true) Bearing (mag) Surface Threshold Offset Overrun Length
11 148 ft / 45 m 11,513 ft / 3,509 m 100.94° 115.80° Asphalt 0 ft / 0 m 0 ft / 0 m
29 148 ft / 45 m 11,513 ft / 3,509 m 280.95° 295.81° Asphalt 0 ft / 0 m 0 ft / 0 m

TFFF

Details ICAO TFFF (FDF)
Name Martinique/Aime Cesaire Intl
Region France (Guadeloupe, Martinique, Saint Barthélemy, Saint Martin)
Timezone America/Martinique (UTC-4.0)
Stats Elevation 16 ft / 5 m (AMSL)
Location 14.591032° -61.003173°
Runways 1
Magnetic Variation 15.058° W

METAR

TFFF 180830Z AUTO 05005KT 9999 FEW024 24/23 Q1014 TEMPO 4000 SHRA SCT015TCU

Decode

TAF

TAF TFFF 180500Z 1806/1906 09007KT 9999 SCT025 TEMPO 1806/1821 4000 SHRA SCT015TCU

Decode

Destination Runways

ID Width Length Bearing (true) Bearing (mag) Surface Threshold Offset Overrun Length
09 148 ft / 45 m 9,852 ft / 3,003 m 79.93° 94.99° Asphalt 0 ft / 0 m 0 ft / 0 m
27 148 ft / 45 m 9,852 ft / 3,003 m 259.94° 275.00° Asphalt 820 ft / 250 m 948 ft / 289 m

Approach Navaids

Runway Type Ident Frequency Range Bearing (true) Bearing (mag) Slope Elevation
09 Localiser FF 109.90 MHz 18 nm / 33 km 79.90° 94.96° - 16 ft / 5 m (AMSL)
09 Glidescope FF 109.90 MHz 10 nm / 19 km 79.93° 94.99° 3.00° 16 ft / 5 m (AMSL)

Popular Alternatives